Weather reports worldwide

Advertisment
Tulloch Bridge, United Kingdom (3047): temperature & dewpoint: 04.12.2018 03:00:00 - 10.12.2018 03:00:00 (GMT)Tulloch Bridge, United Kingdom (3047): temperature -20cm & temperature -100cm: 04.12.2018 03:00:00 - 10.12.2018 03:00:00 (GMT)Tulloch Bridge, United Kingdom (3047): wind speed & gusts: 04.12.2018 03:00:00 - 10.12.2018 03:00:00 (GMT)Tulloch Bridge, United Kingdom (3047): wind direction: 04.12.2018 03:00:00 - 10.12.2018 03:00:00 (GMT)Tulloch Bridge, United Kingdom (3047): reduced air pressure: 04.12.2018 03:00:00 - 10.12.2018 03:00:00 (GMT)Tulloch Bridge, United Kingdom (3047): visibility: 04.12.2018 03:00:00 - 10.12.2018 03:00:00 (GMT)Tulloch Bridge, United Kingdom (3047): precipitation: 04.12.2018 03:00:00 - 10.12.2018 03:00:00 (GMT)
Date & Time tt [°C] td [°C] tt -20cm [°C] tt -100cm [°C] ff [km/h] ff [kn] fx [km/h] fx [kn] dd ppp [hPa] vv [km] rr [mm]
10.12.2018 03:00:00 0,0 -0,6 - - 8 4 - - N 1023,4 45 0,0
10.12.2018 02:00:00 -0,6 -0,7 - - 4 2 - - ENE 1022,9 50 -
10.12.2018 01:00:00 -1,6 -1,8 - - 2 1 - - ESE 1022,0 20 0,0
10.12.2018 00:00:00 -0,7 -1,2 - - 2 1 - - ENE 1021,5 16 0,0
09.12.2018 23:00:00 2,0 0,8 - - 9 5 - - WNW 1020,3 50 0,0
09.12.2018 22:00:00 1,0 0,5 - - 8 4 - - NNW 1020,1 50 0,0
09.12.2018 21:00:00 1,3 0,5 - - 8 4 - - NW 1019,1 45 0,0
09.12.2018 20:00:00 2,0 1,4 - - 8 4 - - NW 1018,3 35 0,0
09.12.2018 19:00:00 2,1 1,7 - - 4 2 - - N 1017,7 40 0,0
09.12.2018 18:00:00 1,7 1,5 - - 4 2 - - E 1016,8 15 0,2
09.12.2018 17:00:00 2,8 2,2 - - 5 3 - - NW 1015,7 8 0,0
09.12.2018 16:00:00 2,2 1,9 - - 2 1 - - NE 1015,0 21 0,0
09.12.2018 15:00:00 2,6 2,3 - - 2 1 - - SW 1013,8 23 0,2
09.12.2018 14:00:00 2,5 1,8 - - 2 1 - - NW 1012,9 27 0,2
09.12.2018 13:00:00 2,5 1,3 - - 8 4 - - SW 1012,0 12 0,2
09.12.2018 12:00:00 2,3 1,2 - - 9 5 - - WSW 1011,0 35 0,6
09.12.2018 11:00:00 1,1 0,2 - - 4 2 - - S 1010,3 5 1,0
09.12.2018 10:00:00 1,9 0,8 - - 4 2 - - NE 1008,6 40 0,0
09.12.2018 09:00:00 1,6 0,9 4,7 5,2 8 4 - - ENE 1006,9 27 0,0
09.12.2018 08:00:00 1,2 0,8 - - 8 4 - - ENE 1005,3 40 0,0
09.12.2018 07:00:00 -0,1 -0,2 - - 2 1 - - E 1003,8 40 0,0
09.12.2018 06:00:00 1,3 1,1 - - 4 2 - - NNE 1002,0 50 0,0
09.12.2018 05:00:00 1,4 0,8 - - 4 2 - - S 1000,4 50 0,0
09.12.2018 04:00:00 2,4 1,6 - - 4 2 - - S 998,7 50 0,0
09.12.2018 03:00:00 2,2 1,6 - - 2 1 - - S 997,1 45 0,0
09.12.2018 02:00:00 2,9 1,5 - - 4 2 - - NW 995,6 40 0,0
09.12.2018 01:00:00 5,0 1,8 - - 8 4 - - NNW 993,8 50 0,0
09.12.2018 00:00:00 4,7 3,1 - - 8 4 - - NW 992,5 50 0,2
08.12.2018 23:00:00 4,5 4,4 - - 8 4 - - NNW 991,4 4,0 0,2
08.12.2018 22:00:00 4,9 3,8 - - 8 4 - - NNW 990,5 35 0,0
08.12.2018 21:00:00 5,4 3,8 - - 11 6 - - W 989,8 45 0,0
08.12.2018 20:00:00 4,3 4,0 - - 4 2 - - NW 989,4 30 0,0
08.12.2018 19:00:00 4,7 3,8 - - 8 4 - - NNW 988,9 40 0,0
08.12.2018 18:00:00 4,3 3,2 - - 8 4 - - W 988,5 50 0,0
08.12.2018 17:00:00 5,2 3,6 - - 9 5 - - W 988,6 50 0,2
08.12.2018 16:00:00 5,0 4,4 - - 5 3 - - NNW 988,6 45 0,0
08.12.2018 15:00:00 5,8 3,7 - - 4 2 - - NW 988,7 50 0,0
08.12.2018 14:00:00 6,0 3,6 - - 5 3 - - NNW 988,9 50 0,0
08.12.2018 13:00:00 7,0 3,7 - - 16 9 - - SSW 989,2 50 0,0
08.12.2018 12:00:00 7,0 4,2 - - 13 7 - - W 989,7 40 0,0
08.12.2018 11:00:00 6,4 4,6 - - 13 7 54 29 WSW 990,4 29 0,2
08.12.2018 10:00:00 6,7 4,2 - - 18 10 48 26 W 990,0 35 0,6
08.12.2018 09:00:00 6,5 4,7 4,5 5,0 13 7 - - W 990,4 12 0,4
08.12.2018 08:00:00 6,9 4,5 - - 13 7 48 26 SW 989,9 28 0,6
08.12.2018 07:00:00 6,9 4,5 - - 24 13 52 28 WNW 989,1 45 2,2
08.12.2018 06:00:00 7,0 4,4 - - 15 8 54 29 WSW 988,4 40 0,8
08.12.2018 05:00:00 6,9 4,8 - - 28 15 70 38 W 987,1 11 1,8
08.12.2018 04:00:00 7,4 3,7 - - 15 8 55 30 WSW 985,6 40 0,0
08.12.2018 03:00:00 6,9 4,3 - - 24 13 54 29 W 985,2 30 0,8
08.12.2018 02:00:00 6,9 4,6 - - 24 13 - - W 984,5 50 1,4
08.12.2018 01:00:00 7,1 3,7 - - 18 10 46 25 SW 983,3 45 0,6
08.12.2018 00:00:00 6,7 4,7 - - 21 11 57 31 SSW 982,3 9 0,8
07.12.2018 23:00:00 7,6 4,1 - - 29 16 55 30 SSW 981,2 45 0,8
07.12.2018 22:00:00 7,2 4,1 - - 22 12 57 31 SW 980,9 10 0,4
07.12.2018 21:00:00 7,2 3,7 - - 21 11 68 37 SW 980,6 15 0,4
07.12.2018 20:00:00 8,3 1,5 - - 37 20 68 37 SW 980,4 50 0,0
07.12.2018 19:00:00 8,0 1,9 - - 35 19 76 41 SW 980,3 50 0,0
07.12.2018 18:00:00 7,6 2,9 - - 28 15 68 37 SSW 980,3 50 0,4
07.12.2018 17:00:00 6,9 3,5 - - 31 17 68 37 SW 980,8 10 1,2
07.12.2018 16:00:00 6,4 3,3 - - 28 15 59 32 SW 980,7 11 0,6
07.12.2018 15:00:00 5,7 3,3 - - 28 15 55 30 SW 982,1 5 1,6
07.12.2018 14:00:00 5,9 2,7 - - 28 15 55 30 SW 982,4 15 0,4
07.12.2018 13:00:00 6,4 1,5 - - 28 15 59 32 SW 983,1 20 1,0
07.12.2018 12:00:00 4,5 2,3 - - 22 12 50 27 SW 985,0 4,6 1,8
07.12.2018 11:00:00 4,7 2,2 - - 28 15 57 31 SW 985,1 5 1,6
07.12.2018 10:00:00 4,1 2,6 - - 31 17 55 30 SSW 985,0 5 1,6
07.12.2018 09:00:00 5,6 2,7 4,0 5,4 35 19 67 36 SSW 984,8 13 0,2
07.12.2018 08:00:00 5,2 3,2 - - 31 17 57 31 SSW 986,1 4,3 1,6
07.12.2018 07:00:00 5,8 3,1 - - 39 21 61 33 SSW 986,0 3,1 1,0
07.12.2018 06:00:00 6,5 2,9 - - 22 12 65 35 SW 987,2 30 0,8
07.12.2018 05:00:00 7,9 5,0 - - 39 21 67 36 SSW 987,3 5 2,8
07.12.2018 04:00:00 8,6 6,2 - - 35 19 55 30 S 988,1 4,4 0,6
07.12.2018 03:00:00 6,7 5,4 - - 22 12 59 32 S 990,5 20 0,8
07.12.2018 02:00:00 6,8 4,9 - - 22 12 48 26 SSE 992,4 8 0,0
07.12.2018 01:00:00 8,2 4,1 - - 21 11 - - SE 994,6 12 0,0
07.12.2018 00:00:00 7,8 4,9 - - 9 5 57 31 S 997,3 22 0,0
06.12.2018 23:00:00 7,7 5,0 - - 11 6 - - S 999,2 13 0,0
06.12.2018 22:00:00 7,2 4,7 - - 11 6 - - S 1000,5 17 0,0
06.12.2018 21:00:00 7,2 3,9 - - 9 5 - - SSW 1001,1 22 0,0
06.12.2018 20:00:00 8,0 2,4 - - 18 10 - - W 1002,2 30 0,0
06.12.2018 19:00:00 8,5 1,3 - - 15 8 - - SSW 1002,3 30 0,0
06.12.2018 18:00:00 8,6 4,0 - - 16 9 - - SW 1002,3 24 0,0
06.12.2018 17:00:00 9,2 2,4 - - 18 10 - - SW 1002,3 27 0,0
06.12.2018 16:00:00 8,8 2,9 - - 22 12 48 26 SW 1002,2 45 0,4
06.12.2018 15:00:00 9,4 3,8 - - 16 9 - - SSW 1001,3 18 0,0
06.12.2018 14:00:00 9,5 4,6 - - 18 10 57 31 W 1001,1 21 0,0
06.12.2018 13:00:00 10,3 6,8 - - 9 5 - - WSW 1000,0 28 0,0
06.12.2018 12:00:00 10,9 7,8 - - 13 7 - - SW 999,5 45 0,0
06.12.2018 11:00:00 10,5 9,1 - - 26 14 - - SSW 998,7 14 0,2
06.12.2018 10:00:00 8,8 8,2 - - 18 10 - - SSW 998,7 4,5 0,6
06.12.2018 09:00:00 7,7 6,8 3,2 5,7 22 12 - - S 999,0 7 1,2
06.12.2018 08:00:00 6,9 5,8 - - 21 11 - - S 999,7 7 2,0
06.12.2018 07:00:00 6,1 4,8 - - 15 8 - - SSW 1000,7 5 1,8
06.12.2018 06:00:00 5,9 4,3 - - 15 8 - - SSE 1002,6 12 0,2
06.12.2018 05:00:00 7,1 4,4 - - 13 7 - - S 1003,3 50 0,0
06.12.2018 04:00:00 6,3 3,7 - - 9 5 - - SE 1005,2 50 0,0
06.12.2018 03:00:00 6,2 3,5 - - 13 7 - - SSE 1005,3 50 0,0
06.12.2018 02:00:00 6,1 3,4 - - 16 9 - - SSE 1006,3 50 0,0
06.12.2018 01:00:00 5,6 3,3 - - 9 5 - - SE 1007,1 50 0,0
06.12.2018 00:00:00 5,3 3,1 - - 8 4 - - S 1008,7 50 0,0
05.12.2018 23:00:00 5,2 2,8 - - 8 4 - - SSE 1008,0 50 0,0
05.12.2018 22:00:00 5,1 2,4 - - 11 6 - - SE 1008,5 50 0,0
05.12.2018 21:00:00 4,9 2,2 - - 16 9 - - S 1008,4 50 0,0
05.12.2018 20:00:00 4,8 2,1 - - 13 7 - - E 1007,7 50 0,0
05.12.2018 19:00:00 4,1 1,7 - - 8 4 - - E 1009,3 50 0,0
05.12.2018 18:00:00 5,0 1,7 - - 15 8 - - ESE 1010,5 50 0,0
05.12.2018 17:00:00 4,2 1,3 - - 9 5 - - NE 1009,7 50 0,0
05.12.2018 16:00:00 4,4 1,3 - - 11 6 - - E 1009,4 40 0,0
05.12.2018 15:00:00 3,7 1,3 - - 4 2 - - SE 1010,7 35 0,0
05.12.2018 14:00:00 3,5 1,0 - - 5 3 - - SSE 1011,1 50 0,0
05.12.2018 13:00:00 3,7 0,7 - - 13 7 - - SE 1011,8 45 0,0
05.12.2018 12:00:00 2,3 -0,2 - - 5 3 - - ENE 1013,1 50 0,0
05.12.2018 11:00:00 1,2 -0,7 - - 13 7 - - SE 1014,4 50 0,0
05.12.2018 10:00:00 -1,5 -2,4 - - 2 1 - - NE 1015,5 45 0,0
05.12.2018 09:00:00 -1,2 -2,4 3,7 5,7 4 2 - - SE 1016,5 50 0,0
05.12.2018 08:00:00 -1,7 -2,5 - - 4 2 - - SE 1017,2 50 0,0
05.12.2018 07:00:00 -2,9 -3,5 - - 5 3 - - S 1017,8 50 0,0
05.12.2018 06:00:00 -3,2 -3,7 - - 8 4 - - S 1018,3 50 0,0
05.12.2018 05:00:00 -4,0 -4,3 - - 5 3 - - E 1018,8 50 0,0
05.12.2018 04:00:00 -3,2 -3,6 - - 4 2 - - SE 1019,1 50 0,0
05.12.2018 03:00:00 -1,7 -2,3 - - 5 3 - - E 1019,7 50 0,0
05.12.2018 02:00:00 -1,9 -2,2 - - 4 2 - - E 1020,1 50 0,0
05.12.2018 01:00:00 -1,2 -2,0 - - 8 4 - - SSE 1020,2 50 0,0
05.12.2018 00:00:00 -2,3 -3,1 - - 4 2 - - ESE 1020,3 50 0,0
04.12.2018 23:00:00 -1,1 -1,4 - - 4 2 - - NNE 1020,5 45 0,0
04.12.2018 22:00:00 -0,7 -0,8 - - 2 1 - - S 1020,4 45 0,0
04.12.2018 21:00:00 -0,9 -0,9 - - 2 1 - - SE 1020,4 45 0,0
04.12.2018 20:00:00 -0,4 -0,4 - - 0 0 - - N 1020,6 30 0,0
04.12.2018 19:00:00 -0,1 -0,1 - - 2 1 - - NW 1020,5 13 0,0
04.12.2018 18:00:00 0,5 0,5 - - 4 2 - - NNE 1020,0 21 0,0
04.12.2018 17:00:00 0,2 0,0 - - 0 0 - - N 1020,1 13 0,0
04.12.2018 16:00:00 0,7 0,3 - - 2 1 - - S 1019,4 20 0,0
04.12.2018 15:00:00 2,0 1,6 - - 4 2 - - NE 1019,1 50 0,0
04.12.2018 14:00:00 2,1 1,6 - - 8 4 - - N 1018,8 50 0,0
04.12.2018 13:00:00 2,0 1,3 - - 8 4 - - NNW 1018,6 45 0,2
04.12.2018 12:00:00 1,0 0,5 - - 2 1 - - NNE 1018,4 50 0,0
04.12.2018 11:00:00 0,4 0,1 - - 2 1 - - WNW 1018,3 45 0,0
04.12.2018 10:00:00 -1,0 -1,3 - - 2 1 - - SE 1018,0 50 0,0
04.12.2018 09:00:00 1,4 1,2 4,2 5,9 9 5 - - SSW 1017,0 50 0,0
04.12.2018 08:00:00 -1,7 -2,0 - - 4 2 - - N 1016,6 50 0,0
04.12.2018 07:00:00 0,6 -0,9 - - 8 4 - - SW 1015,6 50 0,0
04.12.2018 06:00:00 -0,1 -0,9 - - 4 2 - - NE 1015,3 50 0,0
04.12.2018 05:00:00 0,9 -0,2 - - 5 3 - - S 1014,5 50 0,0
04.12.2018 04:00:00 0,2 -1,1 - - 4 2 - - SSE 1014,1 50 0,0
04.12.2018 03:00:00 -1,0 -1,5 - - 5 3 - - SSE 1014,1 50 0,0

tt = temperature
td = dewpoint
tt -20cm = temperature -20cm
tt -100cm = temperature -100cm
ff = wind speed
fx = gusts
dd = wind direction
ppp = reduced air pressure
vv = visibility
rr = precipitation

Next stations